Starlink 31065

operational
NORAD ID: 58627 Int'l Des: 2023-203 Owner: SPXS Country: US Constellation: starlink
LEOCIRCULAR

Starlink 31065について

説明を読み込み中...

リアルタイム位置

3D地球を読み込み中...

次回通過

高度履歴

Altitude vs Time

uPlot chart will show altitude changes over time

軌道要素

1 58627U 23203K 25350.25400008 .00002348 00000-0 94831-4 0 9998
2 58627 43.0029 178.0785 0001476 260.6170 99.4515 15.27572018110805
Epoch: Dec 16, 2025 • Age: 17 hours

現在のステータス

高度 482.5 km
速度 7.63 km/s
衛星直下点 11.77°N, 109.48°E
打ち上げ日 Dec 23, 2023
運用期間 1.9 years
タイプ internet

技術仕様

分類 Payload
質量 730.00 kg
乾燥質量 700.00 kg
総質量 730.00 kg
長さ 0.30 m
直径 4.10 m
スパン 29.00 m
形状 Box + pan
製造者 SPXS
バスタイプ Starlink V2M
フェーズステータス In Orbit
所有者/国 SPXS/US

大規模コンステレーション

Loading constellations...